Home > Time Zones > World Clock > Weather > U.S.A. > Gary > Past weeks

Flag for U.S.A. Weather past 2 weeks in Gary, Indiana, U.S.A.

Now
56 °F

Overcast.


Feels Like: 53 °F
Forecast: 53 / 60 °F
Wind: 14 mph from Northeast

Location: Lansing Municipal Airport

Current Time: Sep 30, 2014 at 1:14:50 AM

Latest Report: Sep 30, 2014 at 12:35 AM


Visibility: 10 mi

Pressure: 30.00 "Hg

Humidity: 86%

Dew point: 52 °F

Location of GaryLocation

Historic Weather in Gary — Graph

°F

Gary temperature yesterday

Maximum temperature yesterday: 82 °F (at 3:35 PM)
Minimum temperature yesterday: 50 °F (at 4:55 AM)
Average temperature yesterday: 64 °F

Past Weeks' High & Low Weather Summary

 TemperatureHumidityPressure
High82 °F (Sep 29, 3:35 PM)100% (Sep 17, 5:15 AM)30.38 "Hg (Sep 17, 5:15 AM)
Low42 °F (Sep 17, 6:15 AM)38% (Sep 19, 2:55 PM)29.72 "Hg (Sep 21, 12:55 AM)
Average60 °F77%30.14 "Hg
* Reported Sep 15 12:15 AM — Sep 30 12:15 AM, Gary, Weather by CustomWeather, © 2014

Note: Actual official high and low records may vary slightly from our data, if they occured in-between our weather recording intervals... More about our weather records

Advertising

Gary weather history for previous 24 hours

 ConditionsComfort  
Time TempWeatherWind HumidityBarometerVisibility
12:15 AM
Sep 30
57 °FOvercast.14 mph86%29.99 "Hg10 mi
11:55 PM
Sep 29
57 °FOvercast.17 mph85%29.99 "Hg10 mi
11:35 PM58 °FOvercast.8 mph84%30.00 "Hg10 mi
11:15 PM58 °FOvercast.12 mph85%30.00 "Hg10 mi
10:55 PM58 °FOvercast.15 mph85%30.00 "Hg10 mi
10:35 PM58 °FOvercast.15 mph88%30.00 "Hg10 mi
10:15 PM58 °FLow clouds.14 mph89%30.00 "Hg10 mi
9:55 PM59 °FOvercast.17 mph88%30.00 "Hg10 mi
9:35 PM60 °FOvercast.10 mph87%30.00 "Hg10 mi
9:15 PM59 °FLow clouds.9 mph89%30.00 "Hg10 mi
8:55 PM59 °FLow clouds.13 mph91%30.00 "Hg10 mi
8:35 PM60 °FLow clouds.15 mph91%29.99 "Hg10 mi
8:15 PM61 °FLow clouds.15 mph91%29.98 "Hg10 mi
7:55 PM62 °FLow clouds.16 mph91%29.97 "Hg7 mi
7:35 PM63 °FPassing clouds.18 mph91%29.96 "Hg7 mi
6:55 PM74 °FPassing clouds.3 mph56%29.92 "Hg10 mi
6:35 PM76 °FPassing clouds.No wind52%29.92 "Hg10 mi
6:15 PM78 °FScattered clouds.No wind49%29.92 "Hg10 mi
5:55 PM78 °FScattered clouds.3 mph50%29.92 "Hg10 mi
5:35 PM78 °FScattered clouds.5 mph48%29.93 "Hg10 mi
5:15 PM80 °FPartly sunny.5 mph46%29.93 "Hg10 mi
4:55 PM81 °FPartly sunny.5 mph43%29.93 "Hg10 mi
4:35 PM81 °FScattered clouds.9 mph44%29.94 "Hg10 mi
4:15 PM81 °FScattered clouds.6 mph44%29.94 "Hg10 mi
3:55 PM81 °FScattered clouds.5 mph43%29.94 "Hg10 mi
3:35 PM82 °FScattered clouds.10 mph44%29.94 "Hg10 mi
3:15 PM81 °FScattered clouds.5 mph44%29.95 "Hg10 mi
2:55 PM80 °FScattered clouds.6 mph45%29.96 "Hg10 mi
2:35 PM81 °FScattered clouds.8 mph45%29.97 "Hg10 mi
2:15 PM80 °FScattered clouds.6 mph45%29.97 "Hg10 mi
1:55 PM80 °FSunny.8 mph46%29.98 "Hg10 mi
1:35 PM80 °FSunny.8 mph46%29.99 "Hg10 mi
12:55 PM79 °FSunny.6 mph49%30.01 "Hg10 mi
12:35 PM79 °FSunny.3 mph49%30.01 "Hg10 mi
12:15 PM77 °FSunny.6 mph51%30.02 "Hg10 mi
11:55 AM77 °FSunny.5 mph51%30.02 "Hg10 mi
11:35 AM76 °FSunny.6 mph51%30.03 "Hg10 mi
11:15 AM75 °FSunny.5 mph52%30.04 "Hg10 mi
10:55 AM74 °FSunny.6 mph54%30.04 "Hg10 mi
10:35 AM72 °FSunny.5 mph58%30.04 "Hg10 mi
10:15 AM71 °FSunny.3 mph62%30.05 "Hg10 mi
9:55 AM69 °FSunny.3 mph66%30.05 "Hg10 mi
9:35 AM67 °FSunny.3 mph67%30.05 "Hg10 mi
9:15 AM65 °FSunny.3 mph74%30.06 "Hg10 mi
8:55 AM62 °FSunny.No wind83%30.06 "Hg10 mi
8:35 AM59 °FSunny.No wind88%30.05 "Hg7 mi
8:15 AM57 °FFog.No wind95%30.05 "Hg4 mi
7:55 AM55 °FFog.No wind98%30.05 "Hg3 mi
7:35 AM52 °FFog.No wind98%30.05 "Hg3 mi
7:15 AM51 °FFog.No wind97%30.05 "Hg3 mi
6:55 AM53 °FFog.3 mph98%30.05 "Hg3 mi
6:35 AM51 °FFog.No wind99%30.05 "Hg2 mi
6:15 AM51 °FFog.No wind98%30.05 "Hg4 mi
5:55 AM51 °FFog.No wind99%30.05 "Hg4 mi
5:35 AM51 °FFog.No wind99%30.04 "Hg1 mi
5:15 AM51 °FFog.No wind97%30.04 "Hg2 mi
4:55 AM50 °FFog.No wind98%30.05 "Hg3 mi
4:35 AM51 °FFog.No wind98%30.05 "Hg4 mi
4:15 AM51 °FFog.No wind97%30.05 "Hg2 mi
3:55 AM52 °FFog.No wind97%30.05 "Hg4 mi
3:35 AM51 °FFog.No wind97%30.05 "Hg2 mi
3:15 AM52 °FClear.No wind99%30.05 "Hg7 mi
2:55 AM53 °FFog.No wind99%30.05 "Hg2 mi
2:35 AM52 °FFog.No wind99%30.05 "Hg4 mi
2:15 AM52 °FFog.No wind99%30.05 "Hg1 mi
1:55 AM51 °FFog.No wind99%30.05 "Hg0 mi
1:35 AM53 °FFog.No wind99%30.06 "Hg0 mi
1:15 AM52 °FFog.No wind99%30.06 "Hg0 mi
Weather by CustomWeather, © 2014

See weather overviewHow to use our weather pages